sat.trackr.live / text

‹ back to catalog

STARLINK-1267

NORAD 45384 · 2020-019AA

PAYLOAD ACTIVE UNKNOWN

§ Identity

Operator
Country
US
Launch date
2020-03-18
Launch site
AFETR
Launch vehicle
Mass (kg)
RCS (m²)

Purposes: comms

External: N2YO · Heavens-Above · Gunter

§ Orbital elements

Epoch: 2026-09-20T06:00:02.000160Z

Period
90.83 min
Inclination
53.0365°
Eccentricity
0.0005976
Mean motion
15.85438296 rev/d
Perigee alt
311.1 km
Apogee alt
319.1 km
Semi-major
6,693.2 km
B*
1.9460e-4
RAAN
248.3361°
Arg perigee
51.7313°
Mean anomaly
219.0094°
Rev number
600

§ Raw data

STARLINK-12671 45384U 20019AA  26263.25002315  .00047205  00000+0  19460-3 0  99932 45384  53.0365 248.3361 0005976  51.7313 219.0094 15.85438296  6004

JSON: /api/v1/satellites/45384 · /tle

For live sub-satellite position, see the globe view (requires WebGL).

§ Visibility from observer

Set your observer location to see the next 7 days of passes ≥ 10°. The values pass through the URL so the page stays shareable.

No JS? Fill the form by hand. The geolocation button needs JavaScript.